Weather in Dolmatovo

Russia / Arkhangel'skaya Oblast'     61°32′34″N   42°20′11″E
temp.,
°C
wind,
m/s
gust,
m/s
humid.,
%
clouds,
%
prec.,
mm/h
press.,
hPa
HPBL,
m
9 march, tue
tue900:00−23n3897100 0.0 1013311
03:00−26n3897100 0.1 1015274
06:00−29n3897100 0.0 1017268
09:00−28n369397 0.0 1019307
12:00−23n368974 0.0 1021413
15:00−20nne368762 0.0 1022506
18:00−23n239558 0.0 102335
21:00−25nnw229529 0.0 102429
10 march, wed
wed1000:00−25w229310 0.0 102435
03:00−25w249347 0.0 102475
06:00−23nw279699 0.1 1024229
09:00−20nw2594100 0.1 1024273
12:00−14nw2485100 0.0 1024497
15:00−11nw2585100 0.0 1025600
18:00−15wnw259593 0.0 1025114
21:00−16wnw279647 0.0 1025137
11 march, thu
thu1100:00−16wnw36910 0.0 1026152
03:00−18wnw24869 0.0 102783
06:00−19wnw25860 0.0 1027102
09:00−15wnw38760 0.0 1027269
12:00−9w48720 0.0 1026512
15:00−7w49710 0.0 1025930
18:00−11wsw37870 0.0 1023157
21:00−12wsw4128636 0.0 1023443
12 march, fri
fri1200:00−11wsw41385100 0.0 1021573
03:00−11wsw41390100 0.0 1019549
06:00−13wsw41191100 0.0 1019431
09:00−11wsw4108879 0.0 1019379
12:00−7sw4108110 0.0 1019533
15:00−4sw5117723 0.0 1018697
18:00−7sw4128549 0.0 1018479
21:00−9ssw4148743 0.0 1018449
13 march, sat
sat1300:00−11ssw4148712 0.0 1018455
03:00−13ssw311927 0.0 1018422
06:00−14ssw4119347 0.0 1017392
09:00−12s4118746 0.0 1016452
12:00−7s512820 0.0 1015662
15:00−6ssw6118637 0.1 1014829
18:00−8ssw51190100 0.1 1013824
21:00−9ssw41290100 0.2 1012696